TimeCEST,TemperatureF,Dew PointF,Humidity,Sea Level PressureIn,VisibilityMPH,Wind Direction,Wind SpeedMPH,Gust SpeedMPH,PrecipitationIn,Events,Conditions,WindDirDegrees,DateUTC
2:00 AM,39,35,81,,0,North,3.5,,,Rain,Rain,350,2012-10-13 00:00:00
4:55 AM,39.2,35.6,87,29.98,0.1,ESE,3.5,-,N/A,Fog-Rain,Rain,110,2012-10-13 02:55:00
5:00 AM,39,35,79,,0,ESE,3.5,,,Rain,Rain,110,2012-10-13 03:00:00
5:55 AM,39.2,35.6,87,29.98,0.1,ESE,3.5,-,N/A,Fog-Rain,Rain,120,2012-10-13 03:55:00
6:55 AM,37.4,33.8,87,29.98,0.1,North,3.5,-,N/A,Fog,Fog,10,2012-10-13 04:55:00
7:55 AM,39.2,35.6,87,29.98,0.7,SSE,2.3,-,N/A,,Overcast,150,2012-10-13 05:55:00
8:00 AM,39,35,80,,1,SSE,2.3,,,Rain,Rain,150,2012-10-13 06:00:00
8:55 AM,39.2,35.6,87,30.01,1.2,ESE,2.3,-,N/A,Rain,Rain,110,2012-10-13 06:55:00
10:55 AM,41.0,37.4,87,30.01,2.5,ESE,11.5,-,N/A,,Mostly Cloudy,110,2012-10-13 08:55:00
11:00 AM,41,37,80,,2,ESE,11.5,,,,Mist,110,2012-10-13 09:00:00
11:55 AM,39.2,37.4,93,30.01,0.1,SE,11.5,-,N/A,Fog-Rain,Rain,130,2012-10-13 09:55:00
12:55 PM,39.2,37.4,93,30.01,0.1,ESE,11.5,-,N/A,Fog-Rain,Rain,110,2012-10-13 10:55:00
1:55 PM,39.2,37.4,93,29.98,0.1,SE,8.1,-,N/A,Fog-Rain,Rain,130,2012-10-13 11:55:00
2:00 PM,40,37,87,,0,SE,8.1,,,Rain,Rain,130,2012-10-13 12:00:00
2:55 PM,39.2,37.4,93,29.98,0.1,SE,9.2,-,N/A,Fog-Rain,Rain,140,2012-10-13 12:55:00
3:55 PM,41.0,37.4,87,29.95,0.1,SSE,8.1,-,N/A,Fog-Rain,Rain,150,2012-10-13 13:55:00
4:55 PM,39.2,37.4,93,29.95,0.2,SSW,4.6,-,N/A,Fog-Rain,Rain,200,2012-10-13 14:55:00
5:00 PM,40,37,83,,0,SSW,4.6,,,Rain,Rain,200,2012-10-13 15:00:00
5:55 PM,39.2,35.6,87,29.92,0.2,South,9.2,-,N/A,Fog-Rain,Rain,170,2012-10-13 15:55:00
7:55 PM,39.2,35.6,87,29.92,0.1,SSE,9.2,-,N/A,Fog,Fog,150,2012-10-13 17:55:00
8:00 PM,39,35,81,,0,SSE,9.2,,,Fog,Heavy Fog,150,2012-10-13 18:00:00
10:55 PM,37.4,32.0,81,29.92,0.1,NW,2.3,-,N/A,Fog,Fog,310,2012-10-13 20:55:00
11:00 PM,38,33,74,,0,NW,2.3,,,Fog,Heavy Fog,310,2012-10-13 21:00:00